Weather History for KPHD - September, 2012

Change the Weather History Date:

Thursday, September 20, 2012

  Actual Average Record
Temperature  
Mean Temperature 57 °F 62 °F  
Max Temperature 74 °F 74 °F 89 °F (1978)
Min Temperature 39 °F 51 °F 37 °F (1979)
Degree Days  
Heating Degree Days 8 4  
Month to date heating degree days 55 39  
Since 1 July heating degree days 56 49  
Cooling Degree Days 0 1  
Month to date cooling degree days 82 56  
Year to date cooling degree days 975 678  
Growing Degree Days 6 (Base 50)    
Moisture  
Dew Point 44 °F    
Average Humidity 65    
Maximum Humidity 96    
Minimum Humidity 33    
Precipitation  
Precipitation T in 0.10 in 0.75 in (1966)
Month to date precipitation 3.55 2.38  
Year to date precipitation 22.07 29.33  
Sea Level Pressure  
Sea Level Pressure 30.03 in    
Wind  
Wind Speed 5 mph (South)    
Max Wind Speed 13 mph    
Max Gust Speed 20 mph    
Visibility 10 miles    
Events      
T = Trace of Precipitation, MM = Missing Value Source: NWS Daily Summary

Daily Weather History Graph

Daily Weather History Graph

Search for Another Location

Airport or City:

Trip Planner

Search our weather history database for the weather conditions in past years. The results will help you decide how hot, cold, wet, or windy it might be!

Date:

Astronomy

Sep. 20, 2012 Rise Set
Actual Time 7:11 AM EDT 7:25 PM EDT
Civil Twilight 6:44 AM EDT 7:52 PM EDT
Nautical Twilight 6:12 AM EDT 8:24 PM EDT
Astronomical Twilight 5:39 AM EDT 8:56 PM EDT
Moon 12:29 PM EDT (9/20) 10:24 PM EDT (9/20)
Length of Visible Light 13h 08m
Length of Day
12h 13m
Waxing Crescent, 26% of the Moon is Illuminated
Sep 20
Waxing Crescent
Sep 22
First Quarter
Sep 29
Full
Oct 8
Last Quarter
Oct 15
New

Hourly Weather History & Observations

Time (EDT) Temp. Windchill Dew Point Humidity Pressure Visibility Wind Dir Wind Speed Gust Speed Precip Events Conditions
12:53 AM 44.1 °F 40.8 °F 41.0 °F 89% 30.13 in 10.0 mi SE 5.8 mph - N/A   Clear
1:53 AM 43.0 °F 39.5 °F 41.0 °F 93% 30.11 in 10.0 mi SE 5.8 mph - N/A   Clear
2:53 AM 42.1 °F 40.2 °F 39.9 °F 92% 30.11 in 10.0 mi ESE 3.5 mph - N/A   Clear
3:53 AM 42.1 °F - 39.0 °F 89% 30.10 in 10.0 mi Calm Calm - N/A   Clear
4:53 AM 39.9 °F - 37.9 °F 93% 30.11 in 10.0 mi Calm Calm - N/A   Clear
6:53 AM 39.9 °F 37.8 °F 37.9 °F 93% 30.11 in 9.0 mi SE 3.5 mph - N/A   Clear
7:53 AM 43.0 °F 40.3 °F 41.0 °F 93% 30.10 in 5.0 mi SSE 4.6 mph - N/A   Clear
8:53 AM 48.0 °F - 43.0 °F 83% 30.09 in 10.0 mi SSE 4.6 mph - N/A   Clear
9:53 AM 54.0 °F - 44.1 °F 69% 30.07 in 10.0 mi SE 5.8 mph - N/A   Clear
10:53 AM 62.1 °F - 43.0 °F 50% 30.06 in 10.0 mi South 10.4 mph - N/A   Clear
11:53 AM 66.0 °F - 44.1 °F 45% 30.04 in 10.0 mi South 8.1 mph - N/A   Clear
12:53 PM 68.0 °F - 44.1 °F 42% 30.03 in 10.0 mi SSW 9.2 mph - N/A   Clear
1:53 PM 72.0 °F - 44.1 °F 37% 29.99 in 10.0 mi South 9.2 mph - N/A   Clear
2:53 PM 73.0 °F - 43.0 °F 34% 29.98 in 10.0 mi South 8.1 mph - N/A   Clear
3:53 PM 73.0 °F - 45.0 °F 37% 29.96 in 10.0 mi South 11.5 mph 17.3 mph N/A   Clear
4:53 PM 73.0 °F - 46.0 °F 38% 29.96 in 10.0 mi SSW 8.1 mph 16.1 mph N/A   Clear
5:53 PM 71.1 °F - 46.0 °F 41% 29.96 in 10.0 mi South 9.2 mph - N/A   Clear
6:53 PM 69.1 °F - 46.9 °F 45% 29.96 in 10.0 mi SSE 5.8 mph - N/A   Clear
7:53 PM 68.0 °F - 48.9 °F 50% 29.95 in 10.0 mi South 5.8 mph - N/A   Clear
8:53 PM 68.0 °F - 48.9 °F 50% 29.96 in 10.0 mi South 4.6 mph - 0.00 in   Scattered Clouds
9:53 PM 68.0 °F - 48.9 °F 50% 29.96 in 10.0 mi WSW 3.5 mph - N/A   Scattered Clouds
10:53 PM 66.0 °F - 50.0 °F 56% 29.97 in 10.0 mi South 3.5 mph - N/A   Mostly Cloudy
11:53 PM 64.9 °F - 51.1 °F 61% 29.96 in 10.0 mi Calm Calm - N/A   Overcast